| time (UTC) | temp F | wind direction | speed knots | gust knots | rain 1hr in | rain 24hr in | rain mn in | humidity % | barometer mb |
| 20260507180227 | 60 | 271 | 2.6 | 7.8 | 0.00 | 0.00 | 0.00 | 46 | 1016.0 |
| 20260507175731 | 60 | 355 | 3.5 | 7.8 | 0.00 | 0.00 | 0.00 | 44 | 1015.9 |
| 20260507175223 | 59 | 204 | 3.5 | 7.8 | 0.00 | 0.00 | 0.00 | 46 | 1016.2 |
| 20260507174717 | 59 | 288 | 3.5 | 9.6 | 0.00 | 0.00 | 0.00 | 47 | 1016.3 |
| 20260507174249 | 59 | 340 | 5.2 | 9.6 | 0.00 | 0.00 | 0.00 | 50 | 1016.4 |
| 20260507173721 | 59 | 310 | 4.3 | 9.6 | 0.00 | 0.00 | 0.00 | 44 | 1016.4 |
| 20260507173213 | 59 | 231 | 4.3 | 9.6 | 0.00 | 0.00 | 0.00 | 47 | 1016.5 |
| 20260507172727 | 59 | 320 | 2.6 | 9.6 | 0.00 | 0.00 | 0.00 | 51 | 1016.6 |
| 20260507172244 | 59 | 341 | 3.5 | 9.6 | 0.00 | 0.00 | 0.00 | 46 | 1016.8 |
| 20260507171717 | 58 | 292 | 2.6 | 9.6 | 0.00 | 0.00 | 0.00 | 48 | 1016.7 |
| 20260507171250 | 59 | 355 | 5.2 | 9.6 | 0.00 | 0.00 | 0.00 | 47 | 1016.7 |
| 20260507170721 | 59 | 286 | 4.3 | 9.6 | 0.00 | 0.00 | 0.00 | 47 | 1016.8 |
| 20260507170215 | 59 | 224 | 2.6 | 9.6 | 0.00 | 0.00 | 0.00 | 48 | 1016.9 |
| 20260507165721 | 59 | 259 | 3.5 | 7.8 | 0.00 | 0.00 | 0.00 | 51 | 1016.9 |
| 20260507165215 | 58 | 57 | 3.5 | 8.7 | 0.00 | 0.00 | 0.00 | 51 | 1016.9 |
| 20260507164729 | 58 | 315 | 2.6 | 9.6 | 0.00 | 0.00 | 0.00 | 47 | 1016.8 |
| 20260507164222 | 58 | 334 | 4.3 | 7.0 | 0.00 | 0.00 | 0.00 | 46 | 1017.1 |
| 20260507163718 | 57 | 271 | 3.5 | 8.7 | 0.00 | 0.00 | 0.00 | 43 | 1017.1 |
| 20260507163231 | 57 | 287 | 2.6 | 8.7 | 0.00 | 0.00 | 0.00 | 45 | 1017.1 |
| 20260507162745 | 57 | 303 | 3.5 | 7.8 | 0.00 | 0.00 | 0.00 | 49 | 1017.1 |
| 20260507162216 | 57 | 316 | 4.3 | 9.6 | 0.00 | 0.00 | 0.00 | 48 | 1017.2 |
| 20260507161730 | 58 | 333 | 5.2 | 9.6 | 0.00 | 0.00 | 0.00 | 47 | 1017.2 |
| 20260507161222 | 57 | 302 | 2.6 | 9.6 | 0.00 | 0.00 | 0.00 | 48 | 1017.1 |
| 20260507160715 | 56 | 260 | 2.6 | 10.4 | 0.00 | 0.00 | 0.00 | 50 | 1017.2 |
| 20260507160249 | 57 | 339 | 6.1 | 13.9 | 0.00 | 0.00 | 0.00 | 46 | 1017.3 |
| 20260507155713 | 57 | 329 | 5.2 | 13.9 | 0.00 | 0.00 | 0.00 | 46 | 1017.2 |
| 20260507155231 | 57 | 326 | 2.6 | 6.1 | 0.00 | 0.00 | 0.00 | 56 | 1017.2 |
| 20260507154744 | 56 | 304 | 2.6 | 11.3 | 0.00 | 0.00 | 0.00 | 52 | 1017.1 |
| 20260507154216 | 55 | 330 | 3.5 | 14.8 | 0.00 | 0.00 | 0.00 | 53 | 1017.1 |
| 20260507153729 | 55 | 345 | 7.0 | 14.8 | 0.00 | 0.00 | 0.00 | 52 | 1017.2 |
| 20260507153242 | 56 | 264 | 2.6 | 7.8 | 0.00 | 0.00 | 0.00 | 51 | 1017.2 |
| 20260507152715 | 56 | 329 | 1.7 | 7.8 | 0.00 | 0.00 | 0.00 | 53 | 1017.1 |
| 20260507152229 | 56 | 350 | 1.7 | 6.1 | 0.00 | 0.00 | 0.00 | 57 | 1017.1 |
| 20260507151722 | 55 | 329 | 1.7 | 6.1 | 0.00 | 0.00 | 0.00 | 53 | 1017.1 |
| 20260507151215 | 55 | 267 | 2.6 | 6.1 | 0.00 | 0.00 | 0.00 | 53 | 1017.2 |
| 20260507150732 | 54 | 256 | 1.7 | 7.0 | 0.00 | 0.00 | 0.00 | 56 | 1017.2 |
| 20260507150225 | 55 | 305 | 2.6 | 9.6 | 0.00 | 0.00 | 0.00 | 57 | 1017.2 |
| 20260507145731 | 54 | 343 | 3.5 | 9.6 | 0.00 | 0.00 | 0.00 | 53 | 1017.2 |
| 20260507145223 | 54 | 29 | 2.6 | 7.0 | 0.00 | 0.00 | 0.00 | 55 | 1017.2 |
| 20260507144716 | 54 | 335 | 4.3 | 9.6 | 0.00 | 0.00 | 0.00 | 55 | 1017.2 |
| 20260507144229 | 54 | 354 | 2.6 | 11.3 | 0.00 | 0.00 | 0.00 | 53 | 1017.1 |
| 20260507143721 | 54 | 328 | 5.2 | 11.3 | 0.00 | 0.00 | 0.00 | 56 | 1017.1 |
| 20260507143235 | 54 | 262 | 2.6 | 7.8 | 0.00 | 0.00 | 0.00 | 59 | 1017.1 |
| 20260507142728 | 53 | 11 | 3.5 | 8.7 | 0.00 | 0.00 | 0.00 | 57 | 1017.1 |
| 20260507142225 | 53 | 328 | 5.2 | 12.2 | 0.00 | 0.00 | 0.00 | 58 | 1017.2 |
| 20260507141737 | 53 | 292 | 3.5 | 12.2 | 0.00 | 0.00 | 0.00 | 58 | 1017.2 |
| 20260507141229 | 52 | 360 | 3.5 | 9.6 | 0.00 | 0.00 | 0.00 | 56 | 1017.1 |
| 20260507140721 | 52 | 335 | 4.3 | 9.6 | 0.00 | 0.00 | 0.00 | 56 | 1017.1 |
| 20260507140214 | 52 | 347 | 5.2 | 8.7 | 0.00 | 0.00 | 0.00 | 59 | 1017.1 |
| 20260507135720 | 52 | 25 | 6.1 | 11.3 | 0.00 | 0.00 | 0.00 | 57 | 1017.2 |
| 20260507135214 | 52 | 4 | 7.0 | 10.4 | 0.00 | 0.00 | 0.00 | 59 | 1017.1 |
| 20260507134746 | 52 | 322 | 3.5 | 6.1 | 0.00 | 0.00 | 0.00 | 60 | 1017.1 |
| 20260507134219 | 52 | 357 | 2.6 | 5.2 | 0.00 | 0.00 | 0.00 | 63 | 1017.1 |
| 20260507133716 | 51 | 314 | 0.9 | 9.6 | 0.00 | 0.00 | 0.00 | 67 | 1017.0 |
| 20260507133229 | 51 | 311 | 4.3 | 9.6 | 0.00 | 0.00 | 0.00 | 64 | 1017.0 |
| 20260507132741 | 50 | 3 | 2.6 | 11.3 | 0.00 | 0.00 | 0.00 | 68 | 1017.0 |
| 20260507132213 | 50 | 352 | 5.2 | 11.3 | 0.00 | 0.00 | 0.00 | 64 | 1017.1 |
| 20260507131725 | 50 | 333 | 5.2 | 7.0 | 0.00 | 0.00 | 0.00 | 67 | 1017.1 |
| 20260507131238 | 50 | 5 | 2.6 | 5.2 | 0.00 | 0.00 | 0.00 | 70 | 1017.1 |
| 20260507130730 | 50 | 309 | 2.6 | 5.2 | 0.00 | 0.00 | 0.00 | 72 | 1017.1 |
| 20260507130222 | 49 | 312 | 1.7 | 6.1 | 0.00 | 0.00 | 0.00 | 76 | 1017.0 |
| 20260507125728 | 48 | 321 | 3.5 | 5.2 | 0.00 | 0.00 | 0.00 | 76 | 1017.1 |
| 20260507125225 | 48 | 338 | 2.6 | 6.1 | 0.00 | 0.00 | 0.00 | 78 | 1017.0 |
| 20260507124718 | 47 | 345 | 3.5 | 6.1 | 0.00 | 0.00 | 0.00 | 79 | 1017.1 |
| 20260507124226 | 47 | 357 | 3.5 | 5.2 | 0.00 | 0.00 | 0.00 | 79 | 1017.1 |
| 20260507123719 | 47 | 338 | 3.5 | 5.2 | 0.00 | 0.00 | 0.00 | 80 | 1017.1 |
| 20260507123231 | 46 | 4 | 2.6 | 4.3 | 0.00 | 0.00 | 0.00 | 81 | 1017.3 |
| 20260507122724 | 46 | 11 | 2.6 | 3.5 | 0.00 | 0.00 | 0.00 | 82 | 1017.3 |
| 20260507122236 | 46 | 333 | 2.6 | 3.5 | 0.00 | 0.00 | 0.00 | 82 | 1017.4 |
| 20260507121749 | 46 | 352 | 2.6 | 4.3 | 0.00 | 0.00 | 0.00 | 82 | 1017.4 |
| 20260507121219 | 46 | 345 | 2.6 | 4.3 | 0.00 | 0.00 | 0.00 | 83 | 1017.4 |
| 20260507120752 | 45 | 349 | 1.7 | 2.6 | 0.00 | 0.00 | 0.00 | 84 | 1017.4 |
| 20260507120227 | 45 | 359 | 0.9 | 2.6 | 0.00 | 0.00 | 0.00 | 84 | 1017.4 |
| 20260507115714 | 45 | 360 | 1.7 | 3.5 | 0.00 | 0.00 | 0.00 | 84 | 1017.4 |
| 20260507115226 | 45 | 356 | 1.7 | 3.5 | 0.00 | 0.00 | 0.00 | 85 | 1017.3 |
| 20260507114718 | 44 | 337 | 1.7 | 2.6 | 0.00 | 0.00 | 0.00 | 86 | 1017.3 |
| 20260507114231 | 44 | 329 | 0.9 | 2.6 | 0.00 | 0.00 | 0.00 | 86 | 1017.4 |
| 20260507113744 | 44 | 298 | 0.9 | 3.5 | 0.00 | 0.00 | 0.00 | 86 | 1017.2 |
| 20260507113216 | 44 | 307 | 0.9 | 3.5 | 0.00 | 0.00 | 0.00 | 87 | 1017.3 |
| 20260507112749 | 43 | 326 | 0.9 | 1.7 | 0.00 | 0.00 | 0.00 | 87 | 1017.3 |
| 20260507112240 | 43 | 303 | 0.9 | 1.7 | 0.00 | 0.00 | 0.00 | 88 | 1017.2 |
| 20260507111731 | 43 | 323 | 0.0 | 1.7 | 0.00 | 0.00 | 0.00 | 88 | 1017.1 |
| 20260507111229 | 43 | 317 | 0.0 | 2.6 | 0.00 | 0.00 | 0.00 | 88 | 1017.0 |
| 20260507110722 | 42 | 307 | 0.0 | 3.5 | 0.00 | 0.00 | 0.00 | 89 | 1016.9 |
| 20260507110214 | 42 | 321 | 0.9 | 3.5 | 0.00 | 0.00 | 0.00 | 89 | 1016.8 |
| 20260507105721 | 42 | 324 | 0.9 | 2.6 | 0.00 | 0.00 | 0.00 | 90 | 1016.7 |
| 20260507105229 | 41 | 328 | 0.0 | 2.6 | 0.00 | 0.00 | 0.00 | 91 | 1016.6 |
| 20260507104721 | 41 | 323 | 0.0 | 1.7 | 0.00 | 0.00 | 0.00 | 91 | 1016.6 |
| 20260507104235 | 41 | 323 | 0.0 | 1.7 | 0.00 | 0.00 | 0.00 | 91 | 1016.5 |
| 20260507103727 | 41 | 329 | 0.9 | 1.7 | 0.00 | 0.00 | 0.00 | 91 | 1016.5 |
| 20260507103220 | 41 | 331 | 0.0 | 0.9 | 0.00 | 0.00 | 0.00 | 92 | 1016.6 |
| 20260507102718 | 41 | 331 | 0.0 | 0.9 | 0.00 | 0.00 | 0.00 | 92 | 1016.5 |
| 20260507102231 | 41 | 331 | 0.0 | 0.9 | 0.00 | 0.00 | 0.00 | 92 | 1016.5 |
| 20260507101725 | 41 | 331 | 0.0 | 0.9 | 0.00 | 0.00 | 0.00 | 92 | 1016.5 |
| 20260507101238 | 41 | 331 | 0.0 | 1.7 | 0.00 | 0.00 | 0.00 | 92 | 1016.5 |
| 20260507100751 | 42 | 331 | 0.9 | 2.6 | 0.00 | 0.00 | 0.00 | 92 | 1016.4 |
| 20260507100223 | 42 | 297 | 0.0 | 1.7 | 0.00 | 0.00 | 0.00 | 92 | 1016.5 |
| 20260507095751 | 42 | 318 | 0.0 | 1.7 | 0.00 | 0.00 | 0.00 | 92 | 1016.5 |
| 20260507095223 | 42 | 318 | 0.0 | 1.7 | 0.00 | 0.00 | 0.00 | 92 | 1016.5 |
| 20260507094737 | 42 | 311 | 0.0 | 1.7 | 0.00 | 0.00 | 0.00 | 92 | 1016.6 |
| 20260507094230 | 42 | 313 | 0.0 | 1.7 | 0.00 | 0.00 | 0.00 | 93 | 1016.6 |
| 20260507093727 | 42 | 320 | 0.0 | 0.9 | 0.00 | 0.00 | 0.00 | 93 | 1016.6 |
| 20260507093220 | 42 | 320 | 0.0 | 0.9 | 0.00 | 0.00 | 0.00 | 93 | 1016.5 |
| 20260507092714 | 43 | 320 | 0.0 | 1.7 | 0.00 | 0.00 | 0.00 | 93 | 1016.4 |
| 20260507092227 | 43 | 320 | 0.0 | 1.7 | 0.00 | 0.00 | 0.00 | 94 | 1016.4 |
| 20260507091721 | 43 | 323 | 0.0 | 1.7 | 0.00 | 0.00 | 0.00 | 94 | 1016.4 |
| 20260507091215 | 43 | 324 | 0.0 | 0.0 | 0.00 | 0.00 | 0.00 | 93 | 1016.4 |
| 20260507090729 | 43 | 324 | 0.0 | 0.0 | 0.00 | 0.00 | 0.00 | 94 | 1016.3 |
| 20260507090222 | 43 | 324 | 0.0 | 0.0 | 0.00 | 0.00 | 0.00 | 94 | 1016.2 |
| 20260507085749 | 43 | 324 | 0.0 | 0.0 | 0.00 | 0.03 | 0.00 | 93 | 1016.2 |
| 20260507085224 | 43 | 324 | 0.0 | 0.0 | 0.00 | 0.03 | 0.00 | 93 | 1016.3 |
| 20260507084718 | 43 | 324 | 0.0 | 0.0 | 0.00 | 0.03 | 0.00 | 93 | 1016.2 |
| 20260507084231 | 43 | 324 | 0.0 | 0.0 | 0.00 | 0.03 | 0.00 | 93 | 1016.2 |
| 20260507083725 | 43 | 325 | 0.0 | 0.0 | 0.00 | 0.03 | 0.00 | 92 | 1016.1 |
| 20260507083218 | 43 | 324 | 0.0 | 0.0 | 0.00 | 0.03 | 0.00 | 92 | 1016.0 |
| 20260507082732 | 44 | 324 | 0.0 | 0.0 | 0.00 | 0.03 | 0.00 | 92 | 1015.9 |
| 20260507082226 | 44 | 325 | 0.0 | 0.0 | 0.00 | 0.03 | 0.00 | 91 | 1016.0 |
| 20260507081723 | 44 | 325 | 0.0 | 0.0 | 0.00 | 0.03 | 0.00 | 91 | 1015.8 |
| 20260507081217 | 44 | 325 | 0.0 | 0.0 | 0.00 | 0.03 | 0.00 | 90 | 1015.9 |
| 20260507080731 | 44 | 325 | 0.0 | 0.0 | 0.00 | 0.03 | 0.00 | 90 | 1015.8 |
| 20260507080225 | 45 | 324 | 0.0 | 0.0 | 0.00 | 0.03 | 0.00 | 90 | 1015.9 |
| 20260507075731 | 44 | 325 | 0.0 | 0.0 | 0.00 | 0.08 | 0.00 | 90 | 1015.8 |
| 20260507075225 | 44 | 325 | 0.0 | 0.0 | 0.00 | 0.08 | 0.00 | 90 | 1015.8 |
| 20260507074718 | 45 | 325 | 0.0 | 1.7 | 0.00 | 0.08 | 0.00 | 90 | 1015.8 |
| 20260507074232 | 45 | 324 | 0.0 | 1.7 | 0.00 | 0.08 | 0.00 | 91 | 1015.9 |
| 20260507073729 | 45 | 319 | 0.0 | 0.9 | 0.00 | 0.08 | 0.00 | 91 | 1015.8 |
| 20260507073224 | 45 | 319 | 0.0 | 0.9 | 0.00 | 0.08 | 0.00 | 90 | 1015.8 |
| 20260507072737 | 45 | 309 | 0.0 | 0.9 | 0.00 | 0.08 | 0.00 | 90 | 1015.8 |
| 20260507072230 | 45 | 307 | 0.0 | 0.9 | 0.00 | 0.08 | 0.00 | 89 | 1015.9 |
| 20260507071724 | 46 | 295 | 0.0 | 0.9 | 0.00 | 0.08 | 0.00 | 89 | 1015.9 |
| 20260507071217 | 46 | 300 | 0.0 | 0.9 | 0.00 | 0.08 | 0.00 | 89 | 1016.2 |
| 20260507070731 | 46 | 300 | 0.0 | 0.9 | 0.00 | 0.08 | 0.00 | 89 | 1016.0 |
| 20260507070225 | 46 | 298 | 0.0 | 0.9 | 0.00 | 0.08 | 0.00 | 89 | 1015.9 |
| 20260507065752 | 46 | 278 | 0.0 | 0.9 | 0.00 | 0.19 | 0.00 | 88 | 1015.8 |
| 20260507065228 | 46 | 278 | 0.0 | 0.9 | 0.00 | 0.19 | 0.00 | 89 | 1016.1 |
| 20260507064741 | 46 | 278 | 0.0 | 0.9 | 0.00 | 0.19 | 0.00 | 89 | 1016.0 |
| 20260507064214 | 46 | 278 | 0.0 | 0.9 | 0.00 | 0.19 | 0.00 | 90 | 1016.0 |
| 20260507063728 | 46 | 278 | 0.0 | 0.9 | 0.00 | 0.19 | 0.00 | 89 | 1016.0 |
| 20260507063221 | 46 | 278 | 0.0 | 0.9 | 0.00 | 0.19 | 0.00 | 88 | 1016.0 |
| 20260507062715 | 46 | 278 | 0.0 | 0.9 | 0.00 | 0.19 | 0.00 | 88 | 1016.1 |
| 20260507062229 | 46 | 278 | 0.0 | 0.9 | 0.00 | 0.19 | 0.00 | 88 | 1016.2 |
| 20260507061722 | 46 | 328 | 0.0 | 0.0 | 0.00 | 0.19 | 0.00 | 89 | 1016.1 |
| 20260507061220 | 45 | 328 | 0.0 | 0.0 | 0.00 | 0.19 | 0.00 | 89 | 1016.1 |
| 20260507060734 | 45 | 328 | 0.0 | 0.0 | 0.00 | 0.19 | 0.00 | 88 | 1016.1 |
| 20260507060226 | 46 | 328 | 0.0 | 0.0 | 0.00 | 0.19 | 0.00 | 87 | 1016.0 |
| 20260507055713 | 46 | 328 | 0.0 | 0.0 | 0.00 | 0.28 | 0.00 | 85 | 1015.8 |
| 20260507055247 | 47 | 328 | 0.0 | 0.0 | 0.00 | 0.28 | 0.00 | 84 | 1016.0 |
| 20260507054719 | 47 | 328 | 0.0 | 0.0 | 0.00 | 0.28 | 0.00 | 84 | 1016.1 |
| 20260507054213 | 47 | 328 | 0.0 | 0.0 | 0.00 | 0.28 | 0.00 | 83 | 1016.1 |
| 20260507053727 | 48 | 328 | 0.0 | 0.0 | 0.00 | 0.28 | 0.00 | 82 | 1016.1 |
| 20260507053220 | 48 | 328 | 0.0 | 0.0 | 0.00 | 0.28 | 0.00 | 81 | 1016.2 |
| 20260507052717 | 48 | 328 | 0.0 | 0.0 | 0.00 | 0.28 | 0.00 | 80 | 1016.2 |
| 20260507052250 | 48 | 328 | 0.0 | 0.0 | 0.00 | 0.28 | 0.00 | 80 | 1016.2 |
| 20260507051723 | 48 | 328 | 0.0 | 0.0 | 0.00 | 0.28 | 0.00 | 81 | 1016.2 |
| 20260507051217 | 48 | 328 | 0.0 | 0.0 | 0.00 | 0.28 | 0.00 | 81 | 1016.3 |
| 20260507050730 | 48 | 328 | 0.0 | 0.0 | 0.00 | 0.28 | 0.00 | 81 | 1016.2 |
| 20260507050224 | 48 | 328 | 0.0 | 0.0 | 0.00 | 0.28 | 0.00 | 83 | 1016.0 |
| 20260507045752 | 48 | 328 | 0.0 | 0.0 | 0.00 | 0.46 | 0.00 | 84 | 1016.0 |
| 20260507045224 | 48 | 328 | 0.0 | 0.0 | 0.00 | 0.46 | 0.00 | 84 | 1016.0 |
| 20260507044717 | 48 | 328 | 0.0 | 0.0 | 0.00 | 0.46 | 0.00 | 82 | 1016.2 |
| 20260507044215 | 49 | 328 | 0.0 | 0.0 | 0.00 | 0.46 | 0.00 | 82 | 1016.3 |
| 20260507043728 | 49 | 328 | 0.0 | 0.0 | 0.00 | 0.46 | 0.00 | 81 | 1016.3 |
| 20260507043221 | 48 | 328 | 0.0 | 0.0 | 0.00 | 0.46 | 0.00 | 81 | 1016.2 |
| 20260507042715 | 48 | 328 | 0.0 | 0.9 | 0.00 | 0.46 | 0.00 | 82 | 1016.2 |
| 20260507042249 | 48 | 328 | 0.0 | 0.0 | 0.00 | 0.46 | 0.00 | 82 | 1016.4 |
| 20260507041721 | 48 | 328 | 0.0 | 0.9 | 0.00 | 0.46 | 0.00 | 82 | 1016.5 |
| 20260507041215 | 48 | 328 | 0.0 | 0.0 | 0.00 | 0.46 | 0.00 | 81 | 1016.3 |
| 20260507040729 | 48 | 328 | 0.0 | 0.0 | 0.00 | 0.46 | 0.00 | 81 | 1016.4 |
| 20260507040223 | 49 | 328 | 0.0 | 0.0 | 0.00 | 0.46 | 0.00 | 81 | 1016.5 |
| 20260507035730 | 49 | 328 | 0.0 | 0.0 | 0.00 | 0.47 | 0.46 | 80 | 1016.5 |
| 20260507035223 | 49 | 328 | 0.0 | 0.0 | 0.00 | 0.47 | 0.46 | 80 | 1016.4 |
| 20260507034717 | 49 | 328 | 0.0 | 0.0 | 0.00 | 0.47 | 0.46 | 79 | 1016.2 |
| 20260507034230 | 49 | 328 | 0.0 | 0.0 | 0.00 | 0.47 | 0.46 | 79 | 1016.3 |
| 20260507033723 | 50 | 328 | 0.0 | 0.0 | 0.00 | 0.47 | 0.46 | 79 | 1016.3 |
| 20260507033217 | 50 | 328 | 0.0 | 0.9 | 0.00 | 0.47 | 0.46 | 79 | 1016.2 |
| 20260507032751 | 50 | 328 | 0.0 | 0.9 | 0.00 | 0.47 | 0.46 | 79 | 1016.0 |
| 20260507032220 | 50 | 328 | 0.0 | 0.9 | 0.00 | 0.47 | 0.46 | 79 | 1016.0 |
| 20260507031718 | 50 | 328 | 0.0 | 0.9 | 0.00 | 0.47 | 0.46 | 79 | 1016.1 |
| 20260507031231 | 50 | 328 | 0.0 | 0.0 | 0.00 | 0.47 | 0.46 | 80 | 1016.1 |
| 20260507030725 | 51 | 328 | 0.0 | 0.0 | 0.00 | 0.47 | 0.46 | 79 | 1016.1 |
| 20260507030218 | 51 | 328 | 0.0 | 0.9 | 0.00 | 0.47 | 0.46 | 78 | 1016.2 |
| 20260507025726 | 51 | 328 | 0.0 | 0.9 | 0.00 | 0.47 | 0.46 | 78 | 1016.2 |
| 20260507025219 | 51 | 328 | 0.0 | 0.9 | 0.00 | 0.47 | 0.46 | 77 | 1016.0 |
| 20260507024753 | 52 | 328 | 0.0 | 0.9 | 0.00 | 0.47 | 0.46 | 76 | 1016.1 |
| 20260507024225 | 52 | 328 | 0.0 | 0.9 | 0.00 | 0.47 | 0.46 | 75 | 1016.1 |
| 20260507023719 | 52 | 328 | 0.0 | 0.0 | 0.00 | 0.47 | 0.46 | 75 | 1016.2 |
| 20260507023216 | 52 | 328 | 0.0 | 0.0 | 0.00 | 0.47 | 0.46 | 75 | 1016.0 |
| 20260507022730 | 52 | 328 | 0.0 | 0.0 | 0.00 | 0.47 | 0.46 | 74 | 1015.9 |
| 20260507022244 | 52 | 328 | 0.0 | 0.0 | 0.00 | 0.47 | 0.46 | 74 | 1015.8 |
| 20260507021737 | 53 | 328 | 0.0 | 0.0 | 0.00 | 0.47 | 0.46 | 73 | 1015.8 |
| 20260507021229 | 53 | 328 | 0.0 | 0.9 | 0.00 | 0.47 | 0.46 | 72 | 1015.8 |
| 20260507020722 | 53 | 328 | 0.0 | 0.9 | 0.00 | 0.47 | 0.46 | 72 | 1015.8 |
| 20260507020216 | 53 | 328 | 0.0 | 0.0 | 0.00 | 0.47 | 0.46 | 72 | 1015.8 |
| 20260507015723 | 53 | 328 | 0.0 | 0.9 | 0.00 | 0.48 | 0.46 | 71 | 1015.6 |
| 20260507015216 | 53 | 328 | 0.0 | 0.9 | 0.00 | 0.48 | 0.46 | 70 | 1015.7 |
| 20260507014714 | 53 | 328 | 0.0 | 0.9 | 0.00 | 0.48 | 0.46 | 70 | 1015.7 |
| 20260507014228 | 53 | 329 | 0.0 | 1.7 | 0.00 | 0.48 | 0.46 | 70 | 1015.6 |
| 20260507013741 | 54 | 329 | 0.0 | 1.7 | 0.00 | 0.48 | 0.46 | 69 | 1015.7 |
| 20260507013214 | 54 | 329 | 0.0 | 2.6 | 0.00 | 0.48 | 0.46 | 70 | 1015.7 |
| 20260507012727 | 54 | 330 | 0.9 | 3.5 | 0.00 | 0.48 | 0.46 | 70 | 1015.6 |
| 20260507012220 | 54 | 316 | 0.0 | 1.7 | 0.00 | 0.48 | 0.46 | 69 | 1015.6 |
| 20260507011713 | 54 | 334 | 0.0 | 1.7 | 0.00 | 0.48 | 0.46 | 70 | 1015.5 |
| 20260507011225 | 54 | 344 | 0.0 | 1.7 | 0.00 | 0.48 | 0.46 | 69 | 1015.5 |
| 20260507010721 | 54 | 316 | 0.0 | 1.7 | 0.00 | 0.48 | 0.46 | 69 | 1015.6 |
| 20260507010214 | 54 | 330 | 0.0 | 1.7 | 0.00 | 0.48 | 0.46 | 69 | 1015.4 |
| 20260507005718 | 54 | 331 | 0.0 | 1.7 | 0.00 | 0.48 | 0.46 | 69 | 1015.3 |
| 20260507005251 | 55 | 331 | 0.9 | 1.7 | 0.00 | 0.48 | 0.46 | 69 | 1015.2 |
| 20260507004722 | 55 | 318 | 0.0 | 1.7 | 0.00 | 0.48 | 0.46 | 69 | 1015.3 |
| 20260507004215 | 55 | 323 | 0.0 | 1.7 | 0.00 | 0.48 | 0.46 | 69 | 1015.3 |
| 20260507003729 | 55 | 320 | 0.0 | 1.7 | 0.00 | 0.48 | 0.46 | 69 | 1015.3 |
| 20260507003221 | 55 | 320 | 0.9 | 4.3 | 0.00 | 0.48 | 0.46 | 68 | 1015.3 |
| 20260507002713 | 56 | 328 | 1.7 | 4.3 | 0.00 | 0.48 | 0.46 | 68 | 1015.1 |
| 20260507002230 | 56 | 342 | 1.7 | 2.6 | 0.00 | 0.48 | 0.46 | 68 | 1015.2 |
| 20260507001722 | 56 | 290 | 0.9 | 2.6 | 0.00 | 0.48 | 0.46 | 67 | 1015.1 |
| 20260507001215 | 56 | 324 | 0.0 | 2.6 | 0.00 | 0.48 | 0.46 | 66 | 1015.1 |
| 20260507000730 | 56 | 272 | 0.9 | 2.6 | 0.00 | 0.48 | 0.46 | 67 | 1014.9 |
| 20260507000222 | 57 | 327 | 0.9 | 3.5 | 0.00 | 0.48 | 0.46 | 67 | 1014.9 |
| 20260506235730 | 56 | 333 | 0.9 | 4.3 | 0.00 | 0.54 | 0.46 | 66 | 1015.1 |
| 20260506235222 | 56 | 313 | 1.7 | 4.3 | 0.00 | 0.54 | 0.46 | 65 | 1015.0 |
| 20260506234716 | 56 | 321 | 0.9 | 3.5 | 0.00 | 0.54 | 0.46 | 66 | 1015.0 |
| 20260506234214 | 57 | 333 | 0.9 | 3.5 | 0.00 | 0.54 | 0.46 | 67 | 1014.8 |
| 20260506233728 | 57 | 335 | 1.7 | 3.5 | 0.00 | 0.54 | 0.46 | 66 | 1014.8 |
| 20260506233221 | 57 | 326 | 0.9 | 4.3 | 0.00 | 0.54 | 0.46 | 66 | 1014.9 |
| 20260506232715 | 57 | 331 | 0.9 | 5.2 | 0.00 | 0.54 | 0.46 | 64 | 1014.8 |
| 20260506232228 | 57 | 314 | 1.7 | 6.1 | 0.00 | 0.54 | 0.46 | 65 | 1014.7 |
| 20260506231722 | 57 | 333 | 3.5 | 7.0 | 0.00 | 0.54 | 0.46 | 65 | 1014.6 |
| 20260506231215 | 57 | 267 | 2.6 | 7.0 | 0.00 | 0.54 | 0.46 | 64 | 1014.5 |
| 20260506230713 | 57 | 317 | 2.6 | 6.1 | 0.00 | 0.54 | 0.46 | 64 | 1014.5 |
| 20260506230227 | 57 | 340 | 1.7 | 5.2 | 0.00 | 0.54 | 0.46 | 63 | 1014.3 |
| 20260506225732 | 58 | 345 | 0.9 | 4.3 | 0.00 | 0.54 | 0.46 | 66 | 1014.2 |
| 20260506225225 | 58 | 323 | 1.7 | 5.2 | 0.00 | 0.54 | 0.46 | 64 | 1014.2 |
| 20260506224719 | 58 | 11 | 2.6 | 7.0 | 0.00 | 0.54 | 0.46 | 64 | 1014.2 |
| 20260506224213 | 58 | 322 | 2.6 | 7.8 | 0.00 | 0.54 | 0.46 | 63 | 1014.2 |
| 20260506223727 | 58 | 7 | 4.3 | 7.8 | 0.00 | 0.54 | 0.46 | 62 | 1014.2 |
| 20260506223241 | 58 | 337 | 3.5 | 8.7 | 0.00 | 0.54 | 0.46 | 63 | 1014.3 |
| 20260506222753 | 58 | 353 | 3.5 | 8.7 | 0.00 | 0.54 | 0.46 | 63 | 1014.3 |
| 20260506222226 | 58 | 321 | 6.1 | 8.7 | 0.00 | 0.54 | 0.46 | 62 | 1014.2 |
| 20260506221723 | 59 | 338 | 4.3 | 7.0 | 0.00 | 0.54 | 0.46 | 64 | 1014.2 |
| 20260506221236 | 59 | 345 | 2.6 | 6.1 | 0.00 | 0.54 | 0.46 | 65 | 1014.2 |
| 20260506220730 | 59 | 321 | 3.5 | 11.3 | 0.00 | 0.54 | 0.46 | 64 | 1014.2 |
| 20260506220223 | 59 | 318 | 5.2 | 11.3 | 0.00 | 0.54 | 0.46 | 63 | 1014.2 |
| 20260506215728 | 59 | 332 | 1.7 | 7.8 | 0.00 | 0.58 | 0.46 | 64 | 1014.3 |
| 20260506215221 | 59 | 341 | 3.5 | 7.8 | 0.00 | 0.58 | 0.46 | 61 | 1014.2 |
| 20260506214714 | 60 | 345 | 1.7 | 5.2 | 0.00 | 0.58 | 0.46 | 60 | 1014.4 |
| 20260506214227 | 60 | 334 | 2.6 | 5.2 | 0.00 | 0.58 | 0.46 | 61 | 1014.5 |
| 20260506213739 | 60 | 321 | 0.9 | 5.2 | 0.00 | 0.58 | 0.46 | 60 | 1014.5 |
| 20260506213214 | 60 | 316 | 1.7 | 5.2 | 0.00 | 0.58 | 0.46 | 59 | 1014.5 |
| 20260506212727 | 60 | 286 | 1.7 | 3.5 | 0.00 | 0.58 | 0.46 | 59 | 1014.4 |
| 20260506212219 | 60 | 273 | 0.9 | 2.6 | 0.00 | 0.58 | 0.46 | 58 | 1014.3 |
| 20260506211731 | 60 | 347 | 0.9 | 3.5 | 0.00 | 0.58 | 0.46 | 59 | 1014.2 |
| 20260506211224 | 60 | 274 | 0.9 | 4.3 | 0.00 | 0.58 | 0.46 | 59 | 1014.3 |
| 20260506210717 | 60 | 313 | 1.7 | 4.3 | 0.00 | 0.58 | 0.46 | 59 | 1014.3 |
| 20260506210230 | 60 | 304 | 1.7 | 5.2 | 0.00 | 0.58 | 0.46 | 59 | 1014.4 |
| 20260506205715 | 61 | 323 | 2.6 | 5.2 | 0.00 | 0.72 | 0.46 | 60 | 1014.2 |
| 20260506205232 | 61 | 341 | 0.9 | 5.2 | 0.00 | 0.72 | 0.46 | 62 | 1014.1 |
| 20260506204726 | 61 | 328 | 1.7 | 6.1 | 0.00 | 0.72 | 0.46 | 61 | 1014.2 |
| 20260506204219 | 60 | 344 | 1.7 | 6.1 | 0.00 | 0.72 | 0.46 | 61 | 1014.0 |
| 20260506203731 | 60 | 328 | 1.7 | 5.2 | 0.00 | 0.72 | 0.46 | 62 | 1014.1 |
| 20260506203224 | 61 | 1 | 2.6 | 5.2 | 0.00 | 0.72 | 0.46 | 63 | 1014.2 |
| 20260506202717 | 61 | 326 | 0.9 | 2.6 | 0.00 | 0.72 | 0.46 | 65 | 1014.1 |
| 20260506202230 | 60 | 309 | 0.9 | 3.5 | 0.00 | 0.72 | 0.46 | 62 | 1014.1 |
| 20260506201723 | 60 | 345 | 1.7 | 5.2 | 0.00 | 0.72 | 0.46 | 62 | 1014.3 |
| 20260506201220 | 60 | 342 | 0.9 | 6.1 | 0.00 | 0.72 | 0.46 | 64 | 1014.3 |
| 20260506200752 | 60 | 328 | 3.5 | 6.1 | 0.00 | 0.72 | 0.46 | 61 | 1014.2 |
| 20260506200223 | 61 | 333 | 0.9 | 5.2 | 0.00 | 0.72 | 0.46 | 61 | 1014.3 |
| 20260506195728 | 61 | 1 | 2.6 | 6.1 | 0.00 | 0.73 | 0.46 | 61 | 1014.1 |
| 20260506195221 | 61 | 325 | 2.6 | 6.1 | 0.00 | 0.73 | 0.46 | 58 | 1014.2 |
| 20260506194714 | 62 | 15 | 0.9 | 6.1 | 0.00 | 0.73 | 0.46 | 60 | 1014.0 |
| 20260506194227 | 62 | 255 | 2.6 | 6.1 | 0.00 | 0.73 | 0.46 | 58 | 1014.1 |
| 20260506193719 | 61 | 336 | 0.9 | 3.5 | 0.00 | 0.73 | 0.46 | 61 | 1014.1 |
| 20260506193252 | 61 | 325 | 0.9 | 5.2 | 0.00 | 0.73 | 0.46 | 58 | 1014.2 |
| 20260506192728 | 61 | 265 | 2.6 | 7.8 | 0.00 | 0.73 | 0.46 | 58 | 1014.3 |
| 20260506192220 | 61 | 284 | 2.6 | 7.8 | 0.00 | 0.73 | 0.46 | 60 | 1014.4 |
| 20260506191733 | 61 | 209 | 1.7 | 5.2 | 0.00 | 0.73 | 0.46 | 58 | 1014.3 |
| 20260506191246 | 61 | 56 | 1.7 | 6.1 | 0.00 | 0.73 | 0.46 | 63 | 1014.2 |
| 20260506190717 | 61 | 26 | 1.7 | 6.1 | 0.00 | 0.73 | 0.46 | 65 | 1014.1 |
| 20260506190230 | 61 | 179 | 1.7 | 6.1 | 0.00 | 0.73 | 0.46 | 62 | 1014.2 |
| 20260506185716 | 61 | 63 | 2.6 | 7.0 | 0.00 | 0.73 | 0.46 | 64 | 1014.1 |
| 20260506185231 | 61 | 328 | 2.6 | 10.4 | 0.00 | 0.73 | 0.46 | 63 | 1014.1 |
| 20260506184722 | 60 | 5 | 2.6 | 10.4 | 0.00 | 0.73 | 0.46 | 61 | 1014.2 |
| 20260506184218 | 60 | 323 | 2.6 | 8.7 | 0.00 | 0.73 | 0.46 | 62 | 1014.1 |
| 20260506183751 | 60 | 293 | 3.5 | 11.3 | 0.00 | 0.73 | 0.46 | 65 | 1014.2 |
| 20260506183221 | 60 | 340 | 6.1 | 11.3 | 0.00 | 0.73 | 0.46 | 62 | 1014.0 |
| 20260506182714 | 60 | 323 | 4.3 | 13.0 | 0.00 | 0.73 | 0.46 | 66 | 1013.9 |
| 20260506182227 | 60 | 3 | 7.8 | 13.0 | 0.00 | 0.73 | 0.46 | 62 | 1013.9 |
| 20260506181719 | 60 | 70 | 3.5 | 10.4 | 0.00 | 0.73 | 0.46 | 62 | 1013.9 |
| 20260506181232 | 60 | 335 | 3.5 | 8.7 | 0.00 | 0.73 | 0.46 | 64 | 1013.9 |
| 20260506180725 | 60 | 13 | 4.3 | 8.7 | 0.00 | 0.73 | 0.46 | 64 | 1013.9 |